Time,TemperatureF,DewpointF,PressureIn,WindDirection,WindDirectionDegrees,WindSpeedMPH,WindSpeedGustMPH,Humidity,HourlyPrecipIn,Conditions,Clouds,dailyrainin,SoftwareType,DateUTC
2013-02-16 00:02:00,29.0,26.0,29.93,WNW,302,0.0,0.0,87,-99.99,,,-99.99,,2013-02-16 05:02:00,
2013-02-16 00:12:00,29.0,26.0,29.93,WNW,302,0.0,0.0,87,-99.99,,,-99.99,,2013-02-16 05:12:00,
2013-02-16 00:22:00,28.0,25.0,29.94,WNW,302,0.0,0.0,88,-99.99,,,-99.99,,2013-02-16 05:22:00,
2013-02-16 00:32:00,28.0,25.0,29.94,WNW,302,0.0,0.0,88,-99.99,,,-99.99,,2013-02-16 05:32:00,
2013-02-16 00:42:00,28.0,25.0,29.94,WNW,302,0.0,0.0,88,-99.99,,,-99.99,,2013-02-16 05:42:00,
2013-02-16 00:52:00,27.0,24.0,29.93,WNW,302,0.0,0.0,88,-99.99,,,-99.99,,2013-02-16 05:52:00,
2013-02-16 01:02:00,27.0,24.0,29.94,WNW,302,0.0,0.0,89,-99.99,,,-99.99,,2013-02-16 06:02:00,
2013-02-16 01:11:00,27.0,24.0,29.94,WNW,302,0.0,0.0,89,-99.99,,,-99.99,,2013-02-16 06:11:00,
2013-02-16 01:21:00,27.0,24.0,29.94,WNW,302,0.0,0.0,89,-99.99,,,-99.99,,2013-02-16 06:21:00,
2013-02-16 01:32:00,27.0,24.0,29.94,WNW,302,0.0,0.0,89,-99.99,,,-99.99,,2013-02-16 06:32:00,
2013-02-16 01:42:00,27.0,24.0,29.94,WNW,302,0.0,0.0,89,-99.99,,,-99.99,,2013-02-16 06:42:00,
2013-02-16 01:52:00,27.0,24.0,29.95,WNW,302,0.0,0.0,90,-99.99,,,-99.99,,2013-02-16 06:52:00,
2013-02-16 02:02:00,28.0,26.0,29.94,WNW,302,0.0,0.0,91,-99.99,,,-99.99,,2013-02-16 07:02:00,
2013-02-16 02:11:00,28.0,26.0,29.94,WNW,302,0.0,0.0,91,-99.99,,,-99.99,,2013-02-16 07:11:00,
2013-02-16 02:21:00,28.0,26.0,29.94,WNW,302,0.0,0.0,91,-99.99,,,-99.99,,2013-02-16 07:21:00,
2013-02-16 02:32:00,28.0,26.0,29.94,WNW,302,0.0,0.0,91,-99.99,,,-99.99,,2013-02-16 07:32:00,
2013-02-16 02:42:00,28.0,26.0,29.94,WNW,302,0.0,0.0,91,-99.99,,,-99.99,,2013-02-16 07:42:00,
2013-02-16 02:53:00,29.0,27.0,29.93,WNW,302,0.0,0.0,91,-99.99,,,-99.99,,2013-02-16 07:53:00,
2013-02-16 03:01:00,29.0,27.0,29.93,WNW,302,0.0,0.0,91,-99.99,,,-99.99,,2013-02-16 08:01:00,
2013-02-16 03:11:00,29.0,27.0,29.93,WNW,302,0.0,0.0,91,-99.99,,,-99.99,,2013-02-16 08:11:00,
2013-02-16 03:21:00,29.0,27.0,29.94,WNW,302,0.0,0.0,91,-99.99,,,-99.99,,2013-02-16 08:21:00,
2013-02-16 03:31:00,30.0,28.0,29.91,WNW,302,0.0,0.0,91,-99.99,,,-99.99,,2013-02-16 08:31:00,
2013-02-16 03:42:00,30.0,28.0,29.91,WNW,302,0.0,0.0,91,-99.99,,,-99.99,,2013-02-16 08:42:00,
2013-02-16 03:52:00,30.0,27.0,29.93,WNW,302,0.0,0.0,90,-99.99,,,-99.99,,2013-02-16 08:52:00,
2013-02-16 04:01:00,31.0,28.0,29.93,NW,310,1.0,4.0,88,-99.99,,,-99.99,,2013-02-16 09:01:00,
2013-02-16 04:11:00,31.0,28.0,29.93,NW,310,1.0,4.0,88,-99.99,,,-99.99,,2013-02-16 09:11:00,
2013-02-16 04:21:00,33.0,28.0,29.93,NNW,335,0.0,6.0,81,-99.99,,,-99.99,,2013-02-16 09:21:00,
2013-02-16 04:32:00,34.0,28.0,29.94,WNW,292,2.0,11.0,80,-99.99,,,-99.99,,2013-02-16 09:32:00,
2013-02-16 04:42:00,34.0,28.0,29.94,WNW,292,2.0,11.0,80,-99.99,,,-99.99,,2013-02-16 09:42:00,
2013-02-16 04:52:00,34.0,29.0,29.94,West,270,2.0,11.0,82,-99.99,,,-99.99,,2013-02-16 09:52:00,
2013-02-16 05:01:00,34.0,29.0,29.94,NNW,343,1.0,10.0,83,-99.99,,,-99.99,,2013-02-16 10:01:00,
2013-02-16 05:11:00,34.0,30.0,29.94,NW,308,5.0,9.0,86,-99.99,,,-99.99,,2013-02-16 10:11:00,
2013-02-16 05:21:00,34.0,30.0,29.94,NW,308,5.0,9.0,86,-99.99,,,-99.99,,2013-02-16 10:21:00,
2013-02-16 05:32:00,33.0,30.0,29.94,NW,319,3.0,9.0,88,-99.99,,,-99.99,,2013-02-16 10:32:00,
2013-02-16 05:42:00,33.0,30.0,29.94,NW,319,3.0,9.0,88,-99.99,,,-99.99,,2013-02-16 10:42:00,
2013-02-16 05:52:00,33.0,30.0,29.94,NNW,329,0.0,3.0,89,-99.99,,,-99.99,,2013-02-16 10:52:00,
2013-02-16 06:02:00,33.0,30.0,29.94,WNW,296,0.0,6.0,90,-99.99,,,-99.99,,2013-02-16 11:02:00,
2013-02-16 06:11:00,33.0,30.0,29.94,WNW,296,0.0,6.0,90,-99.99,,,-99.99,,2013-02-16 11:11:00,
2013-02-16 06:22:00,33.0,30.0,29.94,NW,313,1.0,5.0,90,-99.99,,,-99.99,,2013-02-16 11:22:00,
2013-02-16 06:32:00,33.0,30.0,29.94,NW,313,1.0,5.0,90,-99.99,,,-99.99,,2013-02-16 11:32:00,
2013-02-16 06:42:00,33.0,30.0,29.94,NW,313,1.0,5.0,90,-99.99,,,-99.99,,2013-02-16 11:42:00,
2013-02-16 06:52:00,32.0,30.0,29.93,North,9,0.0,1.0,91,-99.99,,,-99.99,,2013-02-16 11:52:00,
2013-02-16 07:02:00,32.0,30.0,29.93,North,9,1.0,2.0,91,-99.99,,,-99.99,,2013-02-16 12:02:00,
2013-02-16 07:12:00,32.0,30.0,29.93,North,9,1.0,2.0,91,-99.99,,,-99.99,,2013-02-16 12:12:00,
2013-02-16 07:22:00,32.0,30.0,29.93,NW,304,0.0,2.0,91,-99.99,,,-99.99,,2013-02-16 12:22:00,
2013-02-16 07:32:00,32.0,30.0,29.93,WNW,303,0.0,0.0,92,-99.99,,,-99.99,,2013-02-16 12:32:00,
2013-02-16 07:42:00,32.0,30.0,29.93,WNW,303,0.0,0.0,92,-99.99,,,-99.99,,2013-02-16 12:42:00,
2013-02-16 07:52:00,32.0,30.0,29.93,NW,304,0.0,2.0,92,-99.99,,,-99.99,,2013-02-16 12:52:00,
2013-02-16 08:02:00,32.0,30.0,29.94,NW,304,0.0,2.0,92,-99.99,,,-99.99,,2013-02-16 13:02:00,
2013-02-16 08:12:00,32.0,30.0,29.94,NW,304,0.0,3.0,92,-99.99,,,-99.99,,2013-02-16 13:12:00,
2013-02-16 08:21:00,32.0,30.0,29.94,NW,304,0.0,3.0,92,-99.99,,,-99.99,,2013-02-16 13:21:00,
2013-02-16 08:32:00,32.0,30.0,29.94,NW,304,0.0,3.0,92,-99.99,,,-99.99,,2013-02-16 13:32:00,
2013-02-16 08:41:00,32.0,30.0,29.94,NW,304,0.0,3.0,92,-99.99,,,-99.99,,2013-02-16 13:41:00,
2013-02-16 08:52:00,32.0,30.0,29.94,NW,304,0.0,0.0,92,-99.99,,,-99.99,,2013-02-16 13:52:00,
2013-02-16 09:01:00,33.0,31.0,29.94,NW,304,0.0,0.0,92,-99.99,,,-99.99,,2013-02-16 14:01:00,
2013-02-16 09:11:00,33.0,31.0,29.94,NW,304,0.0,0.0,92,-99.99,,,-99.99,,2013-02-16 14:11:00,
2013-02-16 09:21:00,33.0,31.0,29.94,NW,304,0.0,2.0,92,-99.99,,,-99.99,,2013-02-16 14:21:00,
2013-02-16 09:32:00,33.0,31.0,29.94,NW,304,1.0,3.0,92,-99.99,,,-99.99,,2013-02-16 14:32:00,
2013-02-16 09:42:00,33.0,31.0,29.94,NW,304,1.0,3.0,92,-99.99,,,-99.99,,2013-02-16 14:42:00,
2013-02-16 09:52:00,34.0,32.0,29.93,NW,304,1.0,3.0,93,-99.99,,,-99.99,,2013-02-16 14:52:00,
2013-02-16 10:02:00,34.0,32.0,29.93,NW,304,0.0,4.0,92,-99.99,,,-99.99,,2013-02-16 15:02:00,
2013-02-16 10:11:00,34.0,32.0,29.93,NW,304,0.0,4.0,92,-99.99,,,-99.99,,2013-02-16 15:11:00,
2013-02-16 10:22:00,35.0,33.0,29.93,NW,304,1.0,3.0,91,-99.99,,,-99.99,,2013-02-16 15:22:00,
2013-02-16 10:32:00,35.0,33.0,29.93,NW,304,1.0,3.0,91,-99.99,,,-99.99,,2013-02-16 15:32:00,
2013-02-16 10:42:00,35.0,33.0,29.93,NW,304,1.0,3.0,91,-99.99,,,-99.99,,2013-02-16 15:42:00,
2013-02-16 10:52:00,37.0,34.0,29.92,NNW,346,0.0,1.0,87,-99.99,,,-99.99,,2013-02-16 15:52:00,
2013-02-16 11:01:00,38.0,33.0,29.91,NNW,333,0.0,3.0,81,-99.99,,,-99.99,,2013-02-16 16:01:00,
2013-02-16 11:11:00,38.0,33.0,29.91,NNW,333,0.0,3.0,81,-99.99,,,-99.99,,2013-02-16 16:11:00,
2013-02-16 11:21:00,38.0,32.0,29.91,NW,315,1.0,5.0,78,-99.99,,,-99.99,,2013-02-16 16:21:00,
2013-02-16 11:32:00,38.0,32.0,29.91,NW,315,1.0,5.0,78,-99.99,,,-99.99,,2013-02-16 16:32:00,
2013-02-16 11:42:00,38.0,32.0,29.91,NW,315,1.0,5.0,78,-99.99,,,-99.99,,2013-02-16 16:42:00,
2013-02-16 11:52:00,37.0,30.0,29.91,WNW,299,3.0,6.0,77,-99.99,,,-99.99,,2013-02-16 16:52:00,
2013-02-16 12:01:00,37.0,30.0,29.91,WNW,299,3.0,6.0,77,-99.99,,,-99.99,,2013-02-16 17:01:00,
2013-02-16 12:11:00,37.0,30.0,29.91,WNW,299,3.0,6.0,77,-99.99,,,-99.99,,2013-02-16 17:11:00,
2013-02-16 12:22:00,38.0,31.0,29.90,WNW,283,4.0,6.0,75,-99.99,,,-99.99,,2013-02-16 17:22:00,
2013-02-16 12:32:00,38.0,30.0,29.89,WNW,289,3.0,6.0,74,-99.99,,,-99.99,,2013-02-16 17:32:00,
2013-02-16 12:42:00,38.0,30.0,29.89,WNW,289,3.0,6.0,74,-99.99,,,-99.99,,2013-02-16 17:42:00,
2013-02-16 12:52:00,38.0,30.0,29.88,NW,304,1.0,9.0,72,-99.99,,,-99.99,,2013-02-16 17:52:00,
2013-02-16 13:02:00,39.0,30.0,29.88,NW,314,1.0,6.0,70,-99.99,,,-99.99,,2013-02-16 18:02:00,
2013-02-16 13:11:00,39.0,30.0,29.88,NW,314,1.0,6.0,70,-99.99,,,-99.99,,2013-02-16 18:11:00,
2013-02-16 13:21:00,39.0,30.0,29.88,NW,314,1.0,6.0,70,-99.99,,,-99.99,,2013-02-16 18:21:00,
2013-02-16 13:33:00,40.0,30.0,29.87,WNW,301,0.0,5.0,67,-99.99,,,-99.99,,2013-02-16 18:33:00,
2013-02-16 13:42:00,40.0,30.0,29.87,WNW,301,0.0,5.0,67,-99.99,,,-99.99,,2013-02-16 18:42:00,
2013-02-16 13:52:00,41.0,29.0,29.86,NNW,342,0.0,6.0,61,-99.99,,,-99.99,,2013-02-16 18:52:00,
2013-02-16 14:02:00,41.0,29.0,29.86,NNW,333,0.0,2.0,61,-99.99,,,-99.99,,2013-02-16 19:02:00,
2013-02-16 14:11:00,41.0,29.0,29.86,NNW,333,0.0,2.0,61,-99.99,,,-99.99,,2013-02-16 19:11:00,
2013-02-16 14:21:00,41.0,27.0,29.86,NW,319,0.0,4.0,58,-99.99,,,-99.99,,2013-02-16 19:21:00,
2013-02-16 14:32:00,41.0,27.0,29.85,NW,319,1.0,3.0,56,-99.99,,,-99.99,,2013-02-16 19:32:00,
2013-02-16 14:42:00,41.0,27.0,29.85,NW,319,1.0,3.0,56,-99.99,,,-99.99,,2013-02-16 19:42:00,
2013-02-16 14:52:00,41.0,27.0,29.85,ENE,63,0.0,2.0,57,-99.99,,,-99.99,,2013-02-16 19:52:00,
2013-02-16 15:01:00,41.0,27.0,29.85,ENE,63,0.0,0.0,57,-99.99,,,-99.99,,2013-02-16 20:01:00,
2013-02-16 15:11:00,41.0,27.0,29.85,NW,310,2.0,5.0,56,-99.99,,,-99.99,,2013-02-16 20:11:00,
2013-02-16 15:21:00,41.0,27.0,29.85,NW,310,2.0,5.0,56,-99.99,,,-99.99,,2013-02-16 20:21:00,
2013-02-16 15:32:00,41.0,27.0,29.85,NW,310,2.0,5.0,56,-99.99,,,-99.99,,2013-02-16 20:32:00,
2013-02-16 15:42:00,41.0,27.0,29.84,NW,310,0.0,0.0,57,-99.99,,,-99.99,,2013-02-16 20:42:00,
2013-02-16 15:52:00,41.0,27.0,29.84,NW,310,0.0,0.0,57,-99.99,,,-99.99,,2013-02-16 20:52:00,
2013-02-16 16:02:00,41.0,26.0,29.84,NW,313,0.0,2.0,55,-99.99,,,-99.99,,2013-02-16 21:02:00,
2013-02-16 16:11:00,41.0,26.0,29.84,NW,313,0.0,2.0,55,-99.99,,,-99.99,,2013-02-16 21:11:00,
2013-02-16 16:21:00,40.0,25.0,29.83,NNW,329,0.0,2.0,55,-99.99,,,-99.99,,2013-02-16 21:21:00,
2013-02-16 16:32:00,40.0,25.0,29.83,NNW,329,0.0,2.0,55,-99.99,,,-99.99,,2013-02-16 21:32:00,
2013-02-16 16:42:00,40.0,25.0,29.83,NNW,329,0.0,2.0,55,-99.99,,,-99.99,,2013-02-16 21:42:00,
2013-02-16 16:52:00,40.0,26.0,29.83,NNW,329,0.0,1.0,56,-99.99,,,-99.99,,2013-02-16 21:52:00,
2013-02-16 17:01:00,40.0,26.0,29.82,NNW,334,0.0,3.0,57,-99.99,,,-99.99,,2013-02-16 22:01:00,
2013-02-16 17:11:00,40.0,26.0,29.82,NNW,334,0.0,3.0,57,-99.99,,,-99.99,,2013-02-16 22:11:00,
2013-02-16 17:21:00,40.0,26.0,29.82,NNW,334,0.0,0.0,58,-99.99,,,-99.99,,2013-02-16 22:21:00,
2013-02-16 17:32:00,39.0,25.0,29.82,NNW,334,0.0,0.0,58,-99.99,,,-99.99,,2013-02-16 22:32:00,
2013-02-16 17:42:00,39.0,25.0,29.82,NNW,334,0.0,0.0,58,-99.99,,,-99.99,,2013-02-16 22:42:00,
2013-02-16 17:51:00,38.0,25.0,29.83,NNW,333,0.0,3.0,59,-99.99,,,-99.99,,2013-02-16 22:51:00,
2013-02-16 18:02:00,38.0,25.0,29.83,NNW,333,0.0,0.0,58,-99.99,,,-99.99,,2013-02-16 23:02:00,
2013-02-16 18:11:00,37.0,23.0,29.83,NNW,346,1.0,4.0,57,-99.99,,,-99.99,,2013-02-16 23:11:00,
2013-02-16 18:21:00,37.0,23.0,29.83,NNW,346,1.0,4.0,57,-99.99,,,-99.99,,2013-02-16 23:21:00,
2013-02-16 18:32:00,37.0,23.0,29.83,NNW,346,1.0,4.0,57,-99.99,,,-99.99,,2013-02-16 23:32:00,
2013-02-16 18:42:00,37.0,23.0,29.83,NNW,346,1.0,4.0,57,-99.99,,,-99.99,,2013-02-16 23:42:00,
2013-02-16 18:52:00,36.0,22.0,29.84,NW,304,1.0,10.0,56,-99.99,,,-99.99,,2013-02-16 23:52:00,
2013-02-16 19:02:00,36.0,23.0,29.84,NW,319,0.0,6.0,58,-99.99,,,-99.99,,2013-02-17 00:02:00,
2013-02-16 19:12:00,36.0,23.0,29.84,NW,319,0.0,6.0,58,-99.99,,,-99.99,,2013-02-17 00:12:00,
2013-02-16 19:22:00,36.0,23.0,29.83,North,360,1.0,4.0,59,-99.99,,,-99.99,,2013-02-17 00:22:00,
2013-02-16 19:32:00,36.0,24.0,29.83,NW,306,0.0,9.0,61,-99.99,,,-99.99,,2013-02-17 00:32:00,
2013-02-16 19:42:00,36.0,24.0,29.83,NW,306,0.0,9.0,61,-99.99,,,-99.99,,2013-02-17 00:42:00,
2013-02-16 19:52:00,35.0,21.0,29.83,NW,311,1.0,6.0,56,-99.99,,,-99.99,,2013-02-17 00:52:00,
2013-02-16 20:01:00,35.0,21.0,29.83,NW,321,0.0,3.0,57,-99.99,,,-99.99,,2013-02-17 01:01:00,
2013-02-16 20:11:00,35.0,21.0,29.83,NW,321,0.0,3.0,57,-99.99,,,-99.99,,2013-02-17 01:11:00,
2013-02-16 20:21:00,35.0,22.0,29.81,WNW,300,0.0,2.0,58,-99.99,,,-99.99,,2013-02-17 01:21:00,
2013-02-16 20:31:00,35.0,22.0,29.81,WNW,300,0.0,0.0,59,-99.99,,,-99.99,,2013-02-17 01:31:00,
2013-02-16 20:41:00,35.0,22.0,29.81,WNW,300,0.0,0.0,59,-99.99,,,-99.99,,2013-02-17 01:41:00,
2013-02-16 20:52:00,34.0,22.0,29.81,North,355,1.0,3.0,60,-99.99,,,-99.99,,2013-02-17 01:52:00,
2013-02-16 21:01:00,34.0,22.0,29.81,North,355,1.0,3.0,60,-99.99,,,-99.99,,2013-02-17 02:01:00,
2013-02-16 21:11:00,34.0,22.0,29.81,North,355,1.0,3.0,60,-99.99,,,-99.99,,2013-02-17 02:11:00,
2013-02-16 21:21:00,34.0,22.0,29.81,North,355,1.0,3.0,60,-99.99,,,-99.99,,2013-02-17 02:21:00,
2013-02-16 21:31:00,34.0,22.0,29.81,North,355,1.0,3.0,60,-99.99,,,-99.99,,2013-02-17 02:31:00,
2013-02-16 21:52:00,34.0,24.0,29.79,NW,313,0.0,0.0,67,-99.99,,,-99.99,,2013-02-17 02:52:00,
2013-02-16 22:02:00,34.0,24.0,29.79,NW,321,0.0,1.0,67,-99.99,,,-99.99,,2013-02-17 03:02:00,
2013-02-16 22:11:00,33.0,24.0,29.78,NNW,338,0.0,3.0,68,-99.99,,,-99.99,,2013-02-17 03:11:00,
2013-02-16 22:21:00,33.0,24.0,29.78,NNW,338,0.0,3.0,68,-99.99,,,-99.99,,2013-02-17 03:21:00,
2013-02-16 22:32:00,33.0,24.0,29.78,NNW,338,0.0,3.0,68,-99.99,,,-99.99,,2013-02-17 03:32:00,
2013-02-16 22:42:00,33.0,24.0,29.78,NNW,338,0.0,3.0,68,-99.99,,,-99.99,,2013-02-17 03:42:00,
2013-02-16 22:52:00,33.0,24.0,29.78,NNW,338,0.0,3.0,68,-99.99,,,-99.99,,2013-02-17 03:52:00,
2013-02-16 23:01:00,33.0,23.0,29.77,NNE,15,1.0,7.0,65,-99.99,,,-99.99,,2013-02-17 04:01:00,
2013-02-16 23:11:00,33.0,22.0,29.77,NW,309,0.0,10.0,64,-99.99,,,-99.99,,2013-02-17 04:11:00,
2013-02-16 23:21:00,33.0,22.0,29.77,NW,309,0.0,10.0,64,-99.99,,,-99.99,,2013-02-17 04:21:00,
2013-02-16 23:32:00,33.0,21.0,29.76,WNW,300,3.0,12.0,62,-99.99,,,-99.99,,2013-02-17 04:32:00,
2013-02-16 23:41:00,33.0,21.0,29.76,WNW,300,3.0,12.0,62,-99.99,,,-99.99,,2013-02-17 04:41:00,
2013-02-16 23:52:00,32.0,20.0,29.73,West,281,0.0,3.0,61,-99.99,,,-99.99,,2013-02-17 04:52:00,